Time,TemperatureF,DewpointF,PressureIn,WindDirection,WindDirectionDegrees,WindSpeedMPH,WindSpeedGustMPH,Humidity,HourlyPrecipIn,Conditions,Clouds,dailyrainin,SoftwareType,DateUTC
2013-08-19 00:11:00,61.0,40.0,-100.00,ENE,73,0.0,1.0,46,-99.99,,,-99.99,,2013-08-19 06:11:00,
2013-08-19 00:21:00,60.0,41.0,-100.00,ESE,121,4.0,4.0,48,-99.99,,,-99.99,,2013-08-19 06:21:00,
2013-08-19 00:41:00,59.0,41.0,-100.00,ESE,113,1.0,5.0,50,-99.99,,,-99.99,,2013-08-19 06:41:00,
2013-08-19 00:51:00,58.0,41.0,-100.00,NE,53,3.0,4.0,52,-99.99,,,-99.99,,2013-08-19 06:51:00,
2013-08-19 01:01:00,58.0,41.0,-100.00,NE,53,3.0,4.0,52,-99.99,,,-99.99,,2013-08-19 07:01:00,
2013-08-19 01:21:00,57.0,40.0,-100.00,North,0,0.0,2.0,53,-99.99,,,-99.99,,2013-08-19 07:21:00,
2013-08-19 01:42:00,56.0,41.0,-100.00,NE,41,1.0,3.0,56,-99.99,,,-99.99,,2013-08-19 07:42:00,
2013-08-19 01:52:00,57.0,41.0,-100.00,SSE,152,2.0,2.0,54,-99.99,,,-99.99,,2013-08-19 07:52:00,
2013-08-19 02:11:00,57.0,40.0,-100.00,SE,137,1.0,3.0,54,-99.99,,,-99.99,,2013-08-19 08:11:00,
2013-08-19 02:21:00,56.0,40.0,-100.00,SE,132,0.0,3.0,54,-99.99,,,-99.99,,2013-08-19 08:21:00,
2013-08-19 02:41:00,54.0,40.0,-100.00,SE,141,1.0,2.0,58,-99.99,,,-99.99,,2013-08-19 08:41:00,
2013-08-19 03:11:00,54.0,41.0,-100.00,ENE,68,2.0,3.0,61,-99.99,,,-99.99,,2013-08-19 09:11:00,
2013-08-19 03:21:00,54.0,41.0,-100.00,ENE,70,0.0,4.0,61,-99.99,,,-99.99,,2013-08-19 09:21:00,
2013-08-19 05:21:00,54.0,41.0,-100.00,North,0,0.0,1.0,61,-99.99,,,-99.99,,2013-08-19 11:21:00,
2013-08-19 05:45:00,53.0,41.0,-100.00,North,0,0.0,0.0,64,-99.99,,,-99.99,,2013-08-19 11:45:00,
2013-08-19 05:52:00,52.0,41.0,-100.00,North,0,0.0,2.0,64,-99.99,,,-99.99,,2013-08-19 11:52:00,
2013-08-19 06:21:00,51.0,41.0,-100.00,North,0,0.0,0.0,68,-99.99,,,-99.99,,2013-08-19 12:21:00,
2013-08-19 06:42:00,52.0,41.0,-100.00,North,0,0.0,1.0,65,-99.99,,,-99.99,,2013-08-19 12:42:00,
2013-08-19 06:52:00,53.0,41.0,-100.00,ESE,106,1.0,2.0,64,-99.99,,,-99.99,,2013-08-19 12:52:00,
2013-08-19 07:03:00,53.0,41.0,-100.00,ESE,106,1.0,2.0,64,-99.99,,,-99.99,,2013-08-19 13:03:00,
2013-08-19 07:42:00,51.0,40.0,-100.00,ESE,102,1.0,2.0,67,-99.99,,,-99.99,,2013-08-19 13:42:00,
2013-08-19 07:52:00,52.0,40.0,-100.00,SE,129,2.0,3.0,64,-99.99,,,-99.99,,2013-08-19 13:52:00,
2013-08-19 08:11:00,55.0,41.0,-100.00,SE,131,1.0,4.0,58,-99.99,,,-99.99,,2013-08-19 14:11:00,
2013-08-19 08:21:00,54.0,42.0,-100.00,North,0,0.0,2.0,65,-99.99,,,-99.99,,2013-08-19 14:21:00,
2013-08-19 08:42:00,57.0,43.0,-100.00,SW,218,1.0,1.0,61,-99.99,,,-99.99,,2013-08-19 14:42:00,
2013-08-19 08:52:00,60.0,42.0,-100.00,South,169,0.0,2.0,52,-99.99,,,-99.99,,2013-08-19 14:52:00,
2013-08-19 09:11:00,61.0,43.0,-100.00,NW,310,2.0,3.0,50,-99.99,,,-99.99,,2013-08-19 15:11:00,
2013-08-19 09:22:00,63.0,43.0,-100.00,WNW,284,1.0,3.0,48,-99.99,,,-99.99,,2013-08-19 15:22:00,
2013-08-19 09:44:00,65.0,43.0,-100.00,North,350,1.0,2.0,44,-99.99,,,-99.99,,2013-08-19 15:44:00,
2013-08-19 09:54:00,67.0,42.0,-100.00,North,357,1.0,2.0,40,-99.99,,,-99.99,,2013-08-19 15:54:00,
2013-08-19 10:05:00,67.0,42.0,-100.00,North,357,1.0,2.0,40,-99.99,,,-99.99,,2013-08-19 16:05:00,
2013-08-19 10:23:00,72.0,41.0,-100.00,NNW,340,0.0,4.0,33,-99.99,,,-99.99,,2013-08-19 16:23:00,
2013-08-19 10:47:00,73.0,41.0,-100.00,WSW,258,1.0,3.0,31,-99.99,,,-99.99,,2013-08-19 16:47:00,
2013-08-19 11:12:00,76.0,42.0,-100.00,WNW,290,2.0,4.0,28,-99.99,,,-99.99,,2013-08-19 17:12:00,
2013-08-19 11:30:00,77.0,-99.9,-100.00,NNE,18,5.0,5.0,28,-99.99,,,-99.99,,2013-08-19 17:30:00,
2013-08-19 11:38:00,77.0,42.0,-100.00,NNE,18,5.0,5.0,28,-99.99,,,-99.99,,2013-08-19 17:38:00,
2013-08-19 11:57:00,82.0,42.0,-100.00,ENE,76,2.0,3.0,24,-99.99,,,-99.99,,2013-08-19 17:57:00,
2013-08-19 12:05:00,82.0,42.0,-100.00,ENE,76,2.0,3.0,24,-99.99,,,-99.99,,2013-08-19 18:05:00,
2013-08-19 12:28:00,81.0,39.0,-100.00,North,8,6.0,12.0,22,-99.99,,,-99.99,,2013-08-19 18:28:00,
2013-08-19 12:50:00,-999.0,-99.9,-100.00,NNW,331,3.0,6.0,21,-99.99,,,-99.99,,2013-08-19 18:50:00,
2013-08-19 13:00:00,-999.0,-99.9,-100.00,WSW,241,7.0,8.0,19,-99.99,,,-99.99,,2013-08-19 19:00:00,
2013-08-19 13:07:00,83.0,37.0,-100.00,WSW,241,7.0,8.0,19,-99.99,,,-99.99,,2013-08-19 19:07:00,
2013-08-19 13:30:00,-999.0,-99.9,-100.00,NW,309,5.0,9.0,18,-99.99,,,-99.99,,2013-08-19 19:30:00,
2013-08-19 13:50:00,85.0,37.0,-100.00,NNE,21,4.0,20.0,18,-99.99,,,-99.99,,2013-08-19 19:50:00,
2013-08-19 13:59:00,83.0,37.0,-100.00,West,277,10.0,19.0,19,-99.99,,,-99.99,,2013-08-19 19:59:00,
2013-08-19 14:20:00,85.0,38.0,-100.00,NW,307,15.0,20.0,18,-99.99,,,-99.99,,2013-08-19 20:20:00,
2013-08-19 14:30:00,82.0,40.0,-100.00,WNW,298,11.0,18.0,22,-99.99,,,-99.99,,2013-08-19 20:30:00,
2013-08-19 14:50:00,85.0,38.0,-100.00,West,281,15.0,18.0,19,-99.99,,,-99.99,,2013-08-19 20:50:00,
2013-08-19 15:00:00,-999.0,-99.9,-100.00,West,280,17.0,19.0,-999,-99.99,,,-99.99,,2013-08-19 21:00:00,
2013-08-19 15:08:00,85.0,38.0,-100.00,West,280,17.0,19.0,18,-99.99,,,-99.99,,2013-08-19 21:08:00,
2013-08-19 15:25:00,84.0,41.0,-100.00,WNW,298,15.0,21.0,22,-99.99,,,-99.99,,2013-08-19 21:25:00,
2013-08-19 15:38:00,84.0,41.0,-100.00,WNW,298,15.0,21.0,22,-99.99,,,-99.99,,2013-08-19 21:38:00,
2013-08-19 15:54:00,83.0,43.0,-100.00,WNW,301,18.0,20.0,24,-99.99,,,-99.99,,2013-08-19 21:54:00,
2013-08-19 16:25:00,80.0,35.0,-100.00,ESE,114,15.0,20.0,19,-99.99,,,-99.99,,2013-08-19 22:25:00,
2013-08-19 16:44:00,70.0,45.0,-100.00,East,84,27.0,32.0,39,-99.99,,,-99.99,,2013-08-19 22:44:00,
2013-08-19 17:25:00,70.0,53.0,-100.00,ENE,75,14.0,20.0,55,-99.99,,,-99.99,,2013-08-19 23:25:00,
2013-08-19 17:48:00,75.0,47.0,-100.00,East,92,13.0,16.0,36,-99.99,,,-99.99,,2013-08-19 23:48:00,
2013-08-19 17:55:00,75.0,43.0,-100.00,ESE,121,16.0,24.0,32,-99.99,,,-99.99,,2013-08-19 23:55:00,
2013-08-19 18:11:00,74.0,42.0,-100.00,SE,136,10.0,13.0,31,-99.99,,,-99.99,,2013-08-20 00:11:00,
2013-08-19 18:23:00,74.0,42.0,-100.00,SSE,159,6.0,10.0,31,-99.99,,,-99.99,,2013-08-20 00:23:00,
2013-08-19 18:41:00,73.0,44.0,-100.00,ENE,64,3.0,6.0,35,-99.99,,,-99.99,,2013-08-20 00:41:00,
2013-08-19 18:52:00,73.0,47.0,-100.00,SSE,153,2.0,4.0,39,-99.99,,,-99.99,,2013-08-20 00:52:00,
2013-08-19 19:11:00,71.0,45.0,-100.00,SSE,150,7.0,12.0,39,-99.99,,,-99.99,,2013-08-20 01:11:00,
2013-08-19 19:22:00,71.0,43.0,-100.00,SSE,162,6.0,13.0,37,-99.99,,,-99.99,,2013-08-20 01:22:00,
2013-08-19 19:42:00,69.0,50.0,-100.00,ENE,74,10.0,11.0,50,-99.99,,,-99.99,,2013-08-20 01:42:00,
2013-08-19 19:52:00,66.0,57.0,-100.00,ENE,67,9.0,11.0,72,-99.99,,,-99.99,,2013-08-20 01:52:00,
2013-08-19 20:11:00,66.0,52.0,-100.00,SSW,197,9.0,11.0,60,-99.99,,,-99.99,,2013-08-20 02:11:00,
2013-08-19 20:42:00,66.0,51.0,-100.00,SSW,204,4.0,6.0,58,-99.99,,,-99.99,,2013-08-20 02:42:00,
2013-08-19 21:22:00,64.0,52.0,-100.00,SSW,213,3.0,5.0,64,-99.99,,,-99.99,,2013-08-20 03:22:00,
2013-08-19 21:43:00,63.0,51.0,-100.00,ESE,113,3.0,4.0,64,-99.99,,,-99.99,,2013-08-20 03:43:00,
2013-08-19 22:13:00,63.0,51.0,-100.00,NE,45,6.0,6.0,64,-99.99,,,-99.99,,2013-08-20 04:13:00,
2013-08-19 22:42:00,63.0,49.0,-100.00,NNE,12,3.0,5.0,60,-99.99,,,-99.99,,2013-08-20 04:42:00,
2013-08-19 23:12:00,61.0,49.0,-100.00,North,2,3.0,4.0,64,-99.99,,,-99.99,,2013-08-20 05:12:00,
2013-08-19 23:42:00,62.0,51.0,-100.00,East,79,2.0,3.0,66,-99.99,,,-99.99,,2013-08-20 05:42:00,